RYR349 LEPA-LEZL

Flight info

Callsign RYR349
Flight time 1h 11m
Altitude 37000
Route BAVER DCT GERVU DCT ALT DCT RESTU DCT TOSGA DCT ROLAS DCT UNTOS DCT RIXUR DCT MGA M744 MAR
Aircraft A320/M-SDE3FGHIRWY/LB1

Departure

Time 2026-04-25 16:51
Airport Palma de Mallorca Airport (LEPA)

Arrival

Time 2026-04-25 18:02
Airport Seville Airport (LEZL)
Time Latitude Longitude Altitude Speed Heading
2026-04-25 16:23 39.54873 2.73542 30 ft 0 kts 46°
2026-04-25 16:40 39.54873 2.73541 30 ft 1 kts 46°
2026-04-25 16:40 39.54855 2.73519 30 ft 4 kts 42°
2026-04-25 16:40 39.54834 2.73498 30 ft 4 kts 19°
2026-04-25 16:40 39.54815 2.73496 30 ft 2 kts 339°
2026-04-25 16:41 39.54792 2.73502 30 ft 4 kts 19°
2026-04-25 16:41 39.54770 2.73483 30 ft 4 kts 47°
2026-04-25 16:41 39.54773 2.73525 30 ft 4 kts 121°
2026-04-25 16:42 39.54757 2.73542 30 ft 0 kts 148°
2026-04-25 16:42 39.54756 2.73542 30 ft 0 kts 148°
2026-04-25 16:44 39.54707 2.73576 30 ft 16 kts 149°
2026-04-25 16:44 39.54611 2.73658 30 ft 16 kts 150°
2026-04-25 16:44 39.54623 2.73772 30 ft 14 kts 58°
2026-04-25 16:45 39.54673 2.73870 30 ft 12 kts 56°
2026-04-25 16:45 39.54724 2.73949 30 ft 11 kts 28°
2026-04-25 16:45 39.54768 2.73978 30 ft 5 kts 97°
2026-04-25 16:45 39.54762 2.74018 30 ft 4 kts 105°
2026-04-25 16:46 39.54775 2.74096 30 ft 14 kts 58°
2026-04-25 16:46 39.54848 2.74109 30 ft 11 kts 329°
2026-04-25 16:46 39.54912 2.74061 30 ft 10 kts 329°
2026-04-25 16:46 39.54931 2.74046 30 ft 9 kts 329°
2026-04-25 16:47 39.55011 2.73985 30 ft 7 kts 329°
2026-04-25 16:47 39.55092 2.73917 30 ft 18 kts 328°
2026-04-25 16:47 39.55205 2.73827 30 ft 20 kts 328°
2026-04-25 16:47 39.55327 2.73730 30 ft 21 kts 329°
2026-04-25 16:48 39.55459 2.73628 30 ft 23 kts 328°
2026-04-25 16:48 39.55598 2.73518 30 ft 23 kts 330°
2026-04-25 16:48 39.55686 2.73560 30 ft 11 kts 59°
2026-04-25 16:48 39.55725 2.73639 30 ft 10 kts 59°
2026-04-25 16:49 39.55757 2.73711 30 ft 9 kts 59°
2026-04-25 16:49 39.55786 2.73774 30 ft 8 kts 60°
2026-04-25 16:49 39.55823 2.73857 30 ft 16 kts 59°
2026-04-25 16:49 39.55903 2.73900 30 ft 13 kts 324°
2026-04-25 16:50 39.55977 2.73833 30 ft 13 kts 331°
2026-04-25 16:50 39.55986 2.73748 30 ft 12 kts 236°
2026-04-25 16:50 39.55892 2.73550 30 ft 56 kts 239°
2026-04-25 16:50 39.55569 2.72870 30 ft 119 kts 238°
2026-04-25 16:51 39.55048 2.71765 64 ft 164 kts 238°
2026-04-25 16:51 39.54453 2.70511 742 ft 162 kts 236°
2026-04-25 16:51 39.53840 2.69288 1430 ft 162 kts 234°
2026-04-25 16:51 39.53638 2.68891 1623 ft 163 kts 234°
2026-04-25 16:52 39.52508 2.66678 2213 ft 194 kts 236°
2026-04-25 16:52 39.51719 2.65132 2522 ft 218 kts 236°
2026-04-25 16:52 39.50846 2.63422 2989 ft 235 kts 236°
2026-04-25 16:52 39.49931 2.61629 3731 ft 242 kts 236°
2026-04-25 16:53 39.48069 2.57976 5422 ft 244 kts 235°
2026-04-25 16:53 39.47125 2.56128 6208 ft 248 kts 235°
2026-04-25 16:53 39.46166 2.54252 6961 ft 252 kts 236°
2026-04-25 16:54 39.45202 2.52366 7768 ft 253 kts 236°
2026-04-25 16:54 39.44197 2.50375 8119 ft 276 kts 237°
2026-04-25 16:54 39.43124 2.48228 8664 ft 290 kts 237°
2026-04-25 16:54 39.42021 2.46014 9423 ft 295 kts 237°
2026-04-25 16:55 39.40899 2.43765 10176 ft 301 kts 237°
2026-04-25 16:55 39.39724 2.41420 10504 ft 322 kts 237°
2026-04-25 16:55 39.38479 2.38942 10752 ft 343 kts 237°
2026-04-25 16:55 39.37159 2.36317 11308 ft 352 kts 237°
2026-04-25 16:56 39.35814 2.33645 11996 ft 357 kts 237°
2026-04-25 16:56 39.34452 2.30938 12697 ft 361 kts 237°
2026-04-25 16:56 39.33075 2.28202 13398 ft 366 kts 236°
2026-04-25 16:56 39.31679 2.25429 14065 ft 370 kts 237°
2026-04-25 16:57 39.30558 2.22425 14663 ft 375 kts 250°
2026-04-25 16:57 39.30261 2.21356 14877 ft 375 kts 250°
2026-04-25 16:57 39.28816 2.16036 15929 ft 380 kts 251°
2026-04-25 16:57 39.27949 2.12795 16554 ft 383 kts 251°
2026-04-25 16:58 39.27073 2.09534 17176 ft 386 kts 251°
2026-04-25 16:58 39.26189 2.06248 17791 ft 389 kts 251°
2026-04-25 16:58 39.25293 2.02935 18394 ft 393 kts 250°
2026-04-25 16:58 39.24389 1.99597 18923 ft 396 kts 250°
2026-04-25 16:59 39.23472 1.96237 19447 ft 398 kts 250°
2026-04-25 16:59 39.22548 1.92854 19988 ft 401 kts 250°
2026-04-25 16:59 39.21620 1.89451 20521 ft 404 kts 250°
2026-04-25 16:59 39.20679 1.86020 21032 ft 407 kts 250°
2026-04-25 17:00 39.19730 1.82564 21551 ft 410 kts 250°
2026-04-25 17:00 39.18775 1.79087 22075 ft 413 kts 250°
2026-04-25 17:00 39.17812 1.75584 22590 ft 416 kts 250°
2026-04-25 17:00 39.16842 1.72061 23094 ft 418 kts 250°
2026-04-25 17:01 39.15864 1.68516 23588 ft 421 kts 250°
2026-04-25 17:01 39.14881 1.64948 23993 ft 424 kts 250°
2026-04-25 17:01 39.14230 1.62580 24258 ft 425 kts 250°
2026-04-25 17:01 39.12903 1.57762 24785 ft 428 kts 250°
2026-04-25 17:02 39.12241 1.55369 25047 ft 429 kts 250°
2026-04-25 17:02 39.11236 1.51737 25420 ft 432 kts 249°
2026-04-25 17:02 39.10220 1.48078 25729 ft 436 kts 249°
2026-04-25 17:02 39.09543 1.45643 25956 ft 437 kts 249°
2026-04-25 17:03 39.08166 1.40700 26447 ft 440 kts 249°
2026-04-25 17:03 39.07128 1.36985 26815 ft 442 kts 249°
2026-04-25 17:03 39.06087 1.33260 27167 ft 443 kts 249°
2026-04-25 17:03 39.05040 1.29520 27525 ft 445 kts 249°
2026-04-25 17:04 39.03988 1.25764 27872 ft 447 kts 249°
2026-04-25 17:04 39.02934 1.22001 28218 ft 449 kts 249°
2026-04-25 17:04 39.01873 1.18219 28545 ft 450 kts 249°
2026-04-25 17:04 39.00809 1.14424 28869 ft 452 kts 249°
2026-04-25 17:05 38.99739 1.10615 29173 ft 454 kts 249°
2026-04-25 17:05 38.97584 1.02966 29774 ft 457 kts 249°
2026-04-25 17:05 38.96511 0.99174 30059 ft 458 kts 249°
2026-04-25 17:06 38.95420 0.95322 30308 ft 460 kts 249°
2026-04-25 17:06 38.94321 0.91458 30530 ft 461 kts 249°
2026-04-25 17:06 38.93218 0.87586 30754 ft 462 kts 249°
2026-04-25 17:06 38.92111 0.83704 30963 ft 464 kts 249°
2026-04-25 17:07 38.91003 0.79821 31230 ft 463 kts 249°
2026-04-25 17:07 38.89899 0.75947 31533 ft 462 kts 249°
2026-04-25 17:07 38.88799 0.72072 31820 ft 462 kts 249°
2026-04-25 17:07 38.87697 0.68196 32030 ft 463 kts 249°
2026-04-25 17:08 38.86588 0.64312 32281 ft 464 kts 249°
2026-04-25 17:08 38.85478 0.60431 32563 ft 463 kts 249°
2026-04-25 17:08 38.84364 0.56560 32855 ft 462 kts 249°
2026-04-25 17:08 38.83249 0.52700 33152 ft 461 kts 249°
2026-04-25 17:09 38.82048 0.48895 33447 ft 459 kts 243°
2026-04-25 17:09 38.80459 0.45361 33741 ft 457 kts 235°
2026-04-25 17:09 38.78699 0.41974 34038 ft 456 kts 235°
2026-04-25 17:09 38.76949 0.38595 34301 ft 455 kts 235°
2026-04-25 17:10 38.75206 0.35219 34566 ft 454 kts 235°
2026-04-25 17:10 38.73468 0.31852 34835 ft 452 kts 235°
2026-04-25 17:10 38.71733 0.28496 35082 ft 451 kts 235°
2026-04-25 17:10 38.70001 0.25151 35320 ft 451 kts 235°
2026-04-25 17:11 38.68266 0.21813 35551 ft 450 kts 235°
2026-04-25 17:11 38.66534 0.18483 35773 ft 449 kts 235°
2026-04-25 17:11 38.64805 0.15162 35977 ft 449 kts 235°
2026-04-25 17:11 38.63074 0.11840 36160 ft 449 kts 235°
2026-04-25 17:12 38.61341 0.08517 36347 ft 449 kts 235°
2026-04-25 17:12 38.59613 0.05203 36541 ft 448 kts 235°
2026-04-25 17:12 38.57886 0.01888 36734 ft 447 kts 235°
2026-04-25 17:12 38.56160 -0.01419 36917 ft 447 kts 235°
2026-04-25 17:13 38.54435 -0.04722 37062 ft 448 kts 235°
2026-04-25 17:13 38.53289 -0.06912 37101 ft 448 kts 235°
2026-04-25 17:13 38.49230 -0.14640 37098 ft 448 kts 235°
2026-04-25 17:14 38.45750 -0.21240 37097 ft 448 kts 235°
2026-04-25 17:14 38.42270 -0.27842 37101 ft 448 kts 235°
2026-04-25 17:15 38.38790 -0.34432 37105 ft 448 kts 235°
2026-04-25 17:15 38.35309 -0.41027 37114 ft 449 kts 235°
2026-04-25 17:16 38.31816 -0.47611 37123 ft 449 kts 235°
2026-04-25 17:16 38.28319 -0.54202 37125 ft 449 kts 235°
2026-04-25 17:17 38.25333 -0.61169 37123 ft 450 kts 245°
2026-04-25 17:17 38.22733 -0.68409 37123 ft 450 kts 244°
2026-04-25 17:18 38.20130 -0.75589 37121 ft 450 kts 244°
2026-04-25 17:18 38.17509 -0.82821 37124 ft 451 kts 244°
2026-04-25 17:19 38.14880 -0.90057 37114 ft 451 kts 244°
2026-04-25 17:19 38.12248 -0.97297 37112 ft 452 kts 244°
2026-04-25 17:20 38.09614 -1.04540 37110 ft 452 kts 244°
2026-04-25 17:20 38.06969 -1.11777 37109 ft 452 kts 244°
2026-04-25 17:21 38.04316 -1.19009 37110 ft 452 kts 244°
2026-04-25 17:21 38.01661 -1.26240 37114 ft 452 kts 244°
2026-04-25 17:22 37.99451 -1.32248 37114 ft 452 kts 244°
2026-04-25 17:22 37.96330 -1.40686 37126 ft 452 kts 244°
2026-04-25 17:23 37.93656 -1.47905 37127 ft 452 kts 244°
2026-04-25 17:23 37.90983 -1.55120 37122 ft 453 kts 244°
2026-04-25 17:24 37.88301 -1.62346 37111 ft 454 kts 244°
2026-04-25 17:24 37.85610 -1.69577 37115 ft 454 kts 244°
2026-04-25 17:25 37.82909 -1.76807 37111 ft 455 kts 244°
2026-04-25 17:25 37.80199 -1.84034 37128 ft 455 kts 244°
2026-04-25 17:26 37.77483 -1.91258 37125 ft 455 kts 244°
2026-04-25 17:26 37.74765 -1.98485 37128 ft 455 kts 244°
2026-04-25 17:27 37.72056 -2.05653 37132 ft 455 kts 244°
2026-04-25 17:27 37.70231 -2.10470 37134 ft 455 kts 244°
2026-04-25 17:28 37.66599 -2.20069 37116 ft 455 kts 244°
2026-04-25 17:28 37.63858 -2.27282 37117 ft 456 kts 244°
2026-04-25 17:29 37.61110 -2.34492 37116 ft 456 kts 244°
2026-04-25 17:29 37.58361 -2.41709 37114 ft 457 kts 244°
2026-04-25 17:30 37.55615 -2.48926 37112 ft 457 kts 244°
2026-04-25 17:30 37.52850 -2.56139 37114 ft 457 kts 244°
2026-04-25 17:31 37.50082 -2.63345 37108 ft 457 kts 244°
2026-04-25 17:31 37.47310 -2.70548 37094 ft 457 kts 244°
2026-04-25 17:32 37.44525 -2.77752 37075 ft 458 kts 244°
2026-04-25 17:32 37.41732 -2.84962 37091 ft 458 kts 244°
2026-04-25 17:33 37.38939 -2.92168 37092 ft 458 kts 244°
2026-04-25 17:33 37.36149 -2.99374 37093 ft 458 kts 244°
2026-04-25 17:34 37.33370 -3.06522 37083 ft 458 kts 244°
2026-04-25 17:34 37.30558 -3.13706 37087 ft 458 kts 244°
2026-04-25 17:35 37.27748 -3.20890 37088 ft 458 kts 244°
2026-04-25 17:35 37.24937 -3.28070 37090 ft 458 kts 244°
2026-04-25 17:36 37.22114 -3.35243 37093 ft 458 kts 244°
2026-04-25 17:36 37.19290 -3.42406 37091 ft 458 kts 244°
2026-04-25 17:37 37.17875 -3.45990 36827 ft 460 kts 244°
2026-04-25 17:37 37.16455 -3.49583 36306 ft 460 kts 244°
2026-04-25 17:37 37.15036 -3.53177 35795 ft 461 kts 243°
2026-04-25 17:37 37.13610 -3.56783 35299 ft 463 kts 243°
2026-04-25 17:38 37.12178 -3.60398 34816 ft 463 kts 243°
2026-04-25 17:38 37.11695 -3.61617 34654 ft 462 kts 243°
2026-04-25 17:38 37.09313 -3.67612 33669 ft 463 kts 242°
2026-04-25 17:38 37.07872 -3.71230 33000 ft 465 kts 242°
2026-04-25 17:39 37.06430 -3.74853 32337 ft 464 kts 242°
2026-04-25 17:39 37.04993 -3.78456 31674 ft 461 kts 242°
2026-04-25 17:39 37.03562 -3.82035 31060 ft 459 kts 242°
2026-04-25 17:39 37.02137 -3.85599 30444 ft 457 kts 243°
2026-04-25 17:40 37.00721 -3.89142 29797 ft 454 kts 243°
2026-04-25 17:40 36.99309 -3.92672 29125 ft 452 kts 243°
2026-04-25 17:40 36.97907 -3.96166 28534 ft 448 kts 243°
2026-04-25 17:40 36.96511 -3.99627 27950 ft 444 kts 243°
2026-04-25 17:41 36.95126 -4.03057 27378 ft 440 kts 243°
2026-04-25 17:41 36.93753 -4.06458 26818 ft 436 kts 243°
2026-04-25 17:41 36.92395 -4.09833 26264 ft 433 kts 243°
2026-04-25 17:41 36.91051 -4.13178 25735 ft 429 kts 244°
2026-04-25 17:42 36.89720 -4.16491 25203 ft 425 kts 244°
2026-04-25 17:42 36.88398 -4.19773 24683 ft 421 kts 244°
2026-04-25 17:42 36.87100 -4.22983 24178 ft 418 kts 244°
2026-04-25 17:42 36.85775 -4.26252 23667 ft 415 kts 244°
2026-04-25 17:43 36.84484 -4.29462 23077 ft 412 kts 246°
2026-04-25 17:43 36.83565 -4.32782 22497 ft 409 kts 258°
2026-04-25 17:43 36.83208 -4.36280 21924 ft 406 kts 270°
2026-04-25 17:43 36.83420 -4.39771 21359 ft 402 kts 282°
2026-04-25 17:44 36.84166 -4.43115 20813 ft 398 kts 293°
2026-04-25 17:44 36.85369 -4.46211 20261 ft 395 kts 300°
2026-04-25 17:44 36.86658 -4.49236 19731 ft 394 kts 300°
2026-04-25 17:44 36.87943 -4.52252 19208 ft 392 kts 300°
2026-04-25 17:45 36.89218 -4.55256 18724 ft 390 kts 300°
2026-04-25 17:45 36.89644 -4.56265 18567 ft 389 kts 299°
2026-04-25 17:45 36.91734 -4.61208 17701 ft 385 kts 300°
2026-04-25 17:45 36.92981 -4.64162 17177 ft 383 kts 300°
2026-04-25 17:46 36.94217 -4.67094 16664 ft 380 kts 299°
2026-04-25 17:46 36.95447 -4.70009 16159 ft 378 kts 299°
2026-04-25 17:46 36.96670 -4.72907 15656 ft 376 kts 299°
2026-04-25 17:46 36.97888 -4.75795 15167 ft 374 kts 299°
2026-04-25 17:47 36.99098 -4.78673 14681 ft 373 kts 299°
2026-04-25 17:47 37.00301 -4.81534 14212 ft 371 kts 298°
2026-04-25 17:47 37.01495 -4.84382 13730 ft 369 kts 298°
2026-04-25 17:47 37.02683 -4.87218 13206 ft 367 kts 298°
2026-04-25 17:48 37.05058 -4.92814 12166 ft 361 kts 302°
2026-04-25 17:48 37.06549 -4.95319 11667 ft 357 kts 314°
2026-04-25 17:48 37.08270 -4.97547 11177 ft 354 kts 315°
2026-04-25 17:49 37.09404 -4.99007 10857 ft 353 kts 315°
2026-04-25 17:49 37.11106 -5.01199 10376 ft 350 kts 315°
2026-04-25 17:49 37.12784 -5.03368 10088 ft 341 kts 315°
2026-04-25 17:49 37.14394 -5.05459 10029 ft 325 kts 315°
2026-04-25 17:50 37.15926 -5.07451 9945 ft 312 kts 315°
2026-04-25 17:50 37.17403 -5.09371 9803 ft 301 kts 315°
2026-04-25 17:50 37.18844 -5.11240 9507 ft 295 kts 315°
2026-04-25 17:50 37.20266 -5.13084 9146 ft 293 kts 315°
2026-04-25 17:51 37.21677 -5.14917 8761 ft 291 kts 315°
2026-04-25 17:51 37.23078 -5.16740 8363 ft 290 kts 315°
2026-04-25 17:51 37.24477 -5.18559 7973 ft 289 kts 315°
2026-04-25 17:51 37.25865 -5.20365 7614 ft 287 kts 315°
2026-04-25 17:52 37.27248 -5.22165 7228 ft 286 kts 315°
2026-04-25 17:52 37.28157 -5.23350 7060 ft 283 kts 315°
2026-04-25 17:52 37.29993 -5.25749 7033 ft 286 kts 315°
2026-04-25 17:52 37.31370 -5.27548 7031 ft 285 kts 315°
2026-04-25 17:53 37.32746 -5.29342 7032 ft 286 kts 316°
2026-04-25 17:53 37.34125 -5.31140 7031 ft 285 kts 315°
2026-04-25 17:53 37.35459 -5.32888 7027 ft 268 kts 315°
2026-04-25 17:53 37.36706 -5.34528 7023 ft 251 kts 315°
2026-04-25 17:54 37.37875 -5.36064 7023 ft 235 kts 315°
2026-04-25 17:54 37.38992 -5.37526 7025 ft 230 kts 314°
2026-04-25 17:54 37.39945 -5.39128 6858 ft 229 kts 300°
2026-04-25 17:54 37.40574 -5.40959 6547 ft 229 kts 287°
2026-04-25 17:55 37.40858 -5.42924 6215 ft 228 kts 274°
2026-04-25 17:55 37.40965 -5.44911 5904 ft 227 kts 274°
2026-04-25 17:55 37.41079 -5.46888 5589 ft 226 kts 274°
2026-04-25 17:55 37.41194 -5.48849 5280 ft 224 kts 274°
2026-04-25 17:56 37.41307 -5.50771 4989 ft 223 kts 274°
2026-04-25 17:56 37.41421 -5.52707 4692 ft 221 kts 274°
2026-04-25 17:56 37.41645 -5.54613 4391 ft 220 kts 280°
2026-04-25 17:56 37.41816 -5.56521 4106 ft 219 kts 272°
2026-04-25 17:57 37.41849 -5.58425 3811 ft 217 kts 270°
2026-04-25 17:57 37.41849 -5.60320 3533 ft 215 kts 269°
2026-04-25 17:57 37.41846 -5.62193 3257 ft 213 kts 269°
2026-04-25 17:57 37.41845 -5.63453 3079 ft 212 kts 268°
2026-04-25 17:58 37.41842 -5.65907 3004 ft 212 kts 269°
2026-04-25 17:58 37.41840 -5.67753 2996 ft 207 kts 269°
2026-04-25 17:58 37.41839 -5.69512 2853 ft 197 kts 268°
2026-04-25 17:58 37.41836 -5.71214 2596 ft 192 kts 269°
2026-04-25 17:59 37.41833 -5.72876 2349 ft 189 kts 269°
2026-04-25 17:59 37.41830 -5.74522 2098 ft 187 kts 268°
2026-04-25 17:59 37.41827 -5.76150 1861 ft 184 kts 268°
2026-04-25 17:59 37.41825 -5.77692 1623 ft 168 kts 268°
2026-04-25 18:00 37.41822 -5.79098 1402 ft 153 kts 268°
2026-04-25 18:00 37.41819 -5.80398 1214 ft 146 kts 266°
2026-04-25 18:00 37.41816 -5.81663 1026 ft 144 kts 268°
2026-04-25 18:00 37.41813 -5.82923 833 ft 144 kts 268°
2026-04-25 18:01 37.41809 -5.84176 673 ft 144 kts 268°
2026-04-25 18:01 37.41794 -5.85432 504 ft 143 kts 267°
2026-04-25 18:01 37.41801 -5.86683 336 ft 143 kts 268°
2026-04-25 18:01 37.41797 -5.87936 143 ft 139 kts 268°
2026-04-25 18:02 37.41793 -5.89029 102 ft 106 kts 270°
2026-04-25 18:02 37.41799 -5.89715 98 ft 36 kts 271°
2026-04-25 18:02 37.41903 -5.89814 96 ft 19 kts 334°
2026-04-25 18:02 37.41986 -5.89875 96 ft 9 kts 336°
2026-04-25 18:03 37.42043 -5.89904 95 ft 9 kts 338°
2026-04-25 18:03 37.42102 -5.89929 95 ft 9 kts 353°
2026-04-25 18:03 37.42153 -5.89900 94 ft 8 kts 45°
2026-04-25 18:03 37.42188 -5.89851 94 ft 7 kts 49°
2026-04-25 18:04 37.42222 -5.89816 94 ft 5 kts 11°
2026-04-25 18:04 37.42245 -5.89841 97 ft 4 kts 313°
2026-04-25 18:04 37.42262 -5.89863 94 ft 3 kts 315°
2026-04-25 18:04 37.42275 -5.89879 96 ft 2 kts 315°
2026-04-25 18:05 37.42280 -5.89885 94 ft 0 kts 315°